Location: Donovaly
(48.8803°N, 19.2228°E)
Time: 21:56:57
(UTC+00:00)

Daily predictions for brighter satellites

Satellite Brightness Start Highest point End
(mag) Time Altitude Azimuth Time Altitude Azimuth Time Altitude Azimuth
Cosmos 1992 Rocket 4.1 16:34:49 10° S 16:39:58 62° ESE 16:45:09 10° NNE
Sich 1 3.6 16:36:56 10° SSE 16:40:48 34° E 16:44:41 10° NNE
Cosmos 1805 Rocket 3.8 16:37:50 10° SSE 16:42:02 48° E 16:46:15 10° NNE
Cosmos 2061 Rocket 4.2 16:36:26 10° SSE 16:42:38 54° E 16:48:50 10° NNE
COSMO-SKYMED 1 2.7 16:38:45 10° NNE 16:43:02 54° E 16:47:17 10° S
Cosmos 44 4.2 16:40:59 10° NNW 16:44:41 26° NE 16:48:26 10° E
Cosmos 1725 Rocket 4.3 16:41:13 10° SSE 16:47:00 45° E 16:52:51 10° NNE
Cosmos 1943 Rocket 3.1 16:44:20 10° SSE 16:48:51 26° ESE 16:53:21 10° NE
Cosmos 1500 Rocket 4.0 16:44:36 10° SSW 16:49:04 70° WNW 16:53:33 10° N
Cosmos 1707 Rocket 3.8 16:45:01 10° N 16:49:19 47° ENE 16:53:36 10° SSE
Meteor 1-10 Rocket 4.2 16:45:17 10° N 16:50:54 61° ENE 16:56:24 10° SSE
YAOGAN 6 3.2 16:48:02 10° S 16:51:30 60° W 16:54:58 10° NNW
Cosmos 1782 3.2 16:49:57 10° NNW 16:53:58 69° W 16:57:56 10° S
ADEOS Rocket 4.0 16:47:59 10° NNE 16:55:14 42° E 17:02:27 10° SSE
Cosmos 1354 Rocket 4.4 16:54:25 10° NNW 16:59:44 71° WSW 17:04:58 10° SSE
HJ-1C 4.4 16:57:44 10° SE 17:00:29 24° ENE 17:03:15 10° NNE
Cosmos 1802 Rocket 4.0 16:54:30 10° S 17:00:46 81° E 17:07:11 10° N
Tsikada Rocket 4.1 16:54:36 10° N 17:00:54 60° ENE 17:07:13 10° SSE
Meteor 2-6 Rocket 4.2 16:55:16 10° N 17:00:54 83° ENE 17:06:22 10° SSE
SL-4 R/B 3.2 16:56:31 10° WNW 17:01:09 50° SSW 17:05:34 10° SE
STARLINK-54 4.4 16:58:08 10° SSW 17:01:46 34° SE 17:04:53 13° E
STARLINK-77 4.5 16:59:39 10° SSW 17:03:15 32° SE 17:06:15 13° E
USA 234 3.9 16:58:26 10° ENE 17:04:33 44° N 17:10:40 10° WNW
STARLINK-25 4.4 17:01:16 10° SSW 17:04:53 33° SE 17:07:50 14° E
SL-27 R/B 2.9 17:01:59 10° N 17:05:09 37° ENE 17:08:16 10° SE
Cosmos 1864 Rocket 4.5 16:59:34 10° S 17:05:39 62° E 17:11:41 10° NNE
Cosmos 1862 3.4 17:02:14 10° S 17:06:08 53° E 17:10:02 10° NNE
STARLINK-71 4.3 17:03:00 10° SSW 17:06:42 37° SE 17:09:40 15° E
USA 229 DEB 4.0 17:01:34 10° S 17:07:42 45° ESE 17:14:09 10° NE
USA 229 4.0 17:01:41 10° S 17:07:49 45° ESE 17:14:15 10° NE
STARLINK-79 4.4 17:04:30 10° SSW 17:08:10 35° SE 17:11:01 15° E
H-2A R/B 3.0 17:04:36 10° ESE 17:09:04 28° ENE 17:13:36 10° N
Cosmos 1340 4.1 17:06:58 10° SE 17:09:35 18° E 17:12:12 10° NE
Cosmos 2297 3.7 17:03:58 10° SSW 17:09:38 86° ESE 17:15:19 10° NNE
STARLINK-78 4.3 17:06:09 10° SSW 17:09:50 36° SE 17:12:37 16° E
STARLINK-57 4.2 17:07:48 10° SSW 17:11:32 38° SE 17:14:18 16° E
STARLINK-64 3.6 17:09:09 10° SW 17:12:37 47° SE 17:15:06 17° ENE
STARLINK-49 4.2 17:09:23 10° SSW 17:13:06 38° SE 17:15:46 17° E
Ariane Rocket 3.4 17:09:08 10° SE 17:13:51 40° ENE 17:18:36 10° N
STARLINK-27 4.2 17:11:02 10° SSW 17:14:47 39° SE 17:17:24 17° E
NOSS 3-1 (A) 4.1 17:10:23 10° S 17:15:07 30° ESE 17:20:14 11° ENE
Lacrosse 4 Rocket 1.5 17:12:03 10° SW 17:16:15 82° WNW 17:20:37 10° NNE
STARLINK-74 4.2 17:12:38 10° SSW 17:16:23 39° SE 17:18:57 18° E
STARLINK-80 3.8 17:13:05 10° W 17:16:52 57° NNW 17:19:45 16° ENE
STARLINK-39 4.1 17:14:17 10° SSW 17:18:03 41° SE 17:20:33 19° E
Cosmos 921 Rocket 3.5 17:14:09 10° S 17:18:23 41° ESE 17:22:37 10° NNE
STARLINK-43 4.0 17:15:14 10° W 17:18:49 44° N 17:21:22 17° ENE
CZ-2C R/B 4.1 17:14:27 10° ESE 17:19:25 30° ENE 17:24:20 10° N
STARLINK-31 4.1 17:15:55 10° SW 17:19:43 42° SE 17:22:10 19° E
CZ-2D R/B 3.2 17:17:13 10° SSE 17:21:06 90° E 17:25:01 10° NNW
SJ 16-02 3.2 17:18:55 10° NNE 17:21:14 14° NE 17:21:43 14° NE
STARLINK-69 4.0 17:17:39 10° SW 17:21:30 46° SE 17:23:58 20° E
Cosmos 1812 2.6 17:18:36 10° N 17:22:28 66° E 17:26:19 10° SSE
Cosmos 2016 Rocket 4.0 17:16:37 10° S 17:22:43 85° W 17:28:53 10° N
Cosmos 2369 Rocket 2.7 17:17:36 10° S 17:22:44 37° ESE 17:27:55 10° NE
STARLINK-21 4.0 17:19:11 10° SW 17:23:01 44° SE 17:25:21 21° E
STARLINK-45 3.9 17:20:58 10° SW 17:24:50 49° SE 17:27:12 21° E
STARLINK-70 3.9 17:22:32 10° SW 17:26:25 49° SE 17:28:41 22° E
YAOGAN 1 3.0 17:22:11 10° S 17:26:29 67° WSW 17:30:49 10° NNW
Cosmos 1346 Rocket 3.9 17:23:32 10° SE 17:26:44 23° E 17:29:55 10° NE
STARLINK-76 3.9 17:24:05 10° SW 17:27:57 48° SE 17:30:07 23° E
STARLINK-23 3.9 17:25:43 10° SW 17:29:36 49° SE 17:31:43 24° E
STARLINK-32 3.8 17:27:22 10° SW 17:31:16 50° SE 17:33:20 25° E
STARLINK-40 3.8 17:29:00 10° SW 17:32:54 52° SSE 17:34:53 26° E
STARLINK-33 2.9 17:29:39 10° WSW 17:32:54 80° SSE 17:34:26 29° ENE
CENTAUR R/B 4.3 17:27:38 10° NW 17:33:31 26° N 17:39:28 12° NE
STARLINK-44 3.8 17:30:38 10° SW 17:34:33 53° SE 17:36:29 27° E
STARLINK-66 2.9 17:31:28 10° WSW 17:34:44 83° SSE 17:36:11 30° ENE
Cosmos 1633 Rocket 2.9 17:31:01 10° S 17:35:20 73° E 17:39:41 10° NNE
STARLINK-55 2.9 17:32:31 10° WSW 17:35:47 86° SSE 17:37:12 31° ENE
STARLINK-37 3.7 17:32:21 10° SW 17:36:18 57° SSE 17:38:13 28° E
FALCON 9 DEB 3.2 17:33:17 10° WNW 17:36:44 64° NNE 17:38:06 32° E
STARLINK-28 2.9 17:34:12 10° WSW 17:37:29 88° NNW 17:38:51 32° ENE
STARLINK-36 3.7 17:33:55 10° SW 17:37:51 55° SSE 17:39:41 29° E
Cosmos 1666 Rocket 3.6 17:34:44 10° S 17:39:12 85° W 17:43:44 10° N
STARLINK-26 3.5 17:36:11 10° W 17:39:36 58° NNW 17:41:13 28° NE
Cosmos 2233 Rocket 3.9 17:33:31 10° S 17:39:36 71° E 17:45:47 10° NNE
STARLINK-68 3.6 17:35:43 10° SW 17:39:40 61° SSE 17:41:30 30° E
Cosmos 1933 Rocket 4.1 17:35:57 10° SSE 17:39:56 34° E 17:43:55 10° NNE
ATLAS 3B R/B 4.3 17:35:53 10° NW 17:41:01 23° N 17:46:12 10° NE
STARLINK-63 3.6 17:37:16 10° SW 17:41:14 61° SSE 17:42:59 31° E
STARLINK-29 3.2 17:37:53 10° WNW 17:41:17 61° NNE 17:42:25 37° E
STARLINK-35 3.6 17:38:50 10° SW 17:42:48 60° SSE 17:44:26 32° E
CZ-4 R/B 3.3 17:39:35 10° SSW 17:43:27 34° W 17:47:18 10° NNW
STARLINK-51 3.6 17:40:31 10° SW 17:44:28 61° SSE 17:46:04 33° E
Meteor 1-27 Rocket 3.8 17:39:33 10° NNW 17:45:07 82° W 17:50:43 10° S
STARLINK-75 3.0 17:41:48 10° WSW 17:45:14 88° SSE 17:46:26 38° ENE
STARLINK-30 3.6 17:42:08 10° SW 17:46:07 63° SSE 17:47:38 35° E
Cosmos 1939 Rocket 4.0 17:42:38 10° S 17:46:37 48° W 17:50:39 10° NNW
Lacrosse 5 rocket 2.9 17:42:52 10° WNW 17:46:56 32° N 17:49:40 18° NE
STARLINK-72 3.5 17:43:47 10° SW 17:47:45 64° SSE 17:49:13 36° E
STARLINK-1023 3.2 17:45:27 10° SW 17:48:22 44° SSE 17:48:29 43° SE
STARLINK-50 3.5 17:45:25 10° SW 17:49:24 66° SSE 17:50:49 37° E
SPOT 3 Rocket 4.1 17:48:03 26° ESE 17:50:03 36° ENE 17:54:48 10° N
STARLINK-22 3.0 17:46:38 10° WSW 17:50:04 80° SSE 17:50:58 46° ENE
STARLINK-59 3.5 17:47:09 10° SW 17:51:09 70° SSE 17:52:31 39° E
STARLINK 1040 2.9 17:48:41 10° SW 17:51:18 51° SSE 17:51:18 51° SSE
STARLINK-52 3.1 17:48:05 10° WNW 17:51:28 64° NNE 17:52:08 49° ENE
STARLINK-41 3.0 17:48:03 10° WSW 17:51:30 86° SSE 17:52:23 47° ENE
STARLINK-42 2.9 17:48:48 10° WSW 17:52:03 85° NNW 17:52:46 51° ENE
STARLINK-56 3.5 17:48:42 10° SW 17:52:41 69° SSE 17:53:58 40° E
STARLINK-73 3.5 17:50:22 10° SW 17:54:22 70° SSE 17:55:35 42° E
Aureole 2 Rocket 3.1 17:51:59 10° SSW 17:53:24 28° S 17:53:24 28° S
STARLINK-38 3.5 17:52:01 10° SW 17:56:01 72° SSE 17:57:11 44° E
ARGOS Delta rocket 4.2 17:56:09 35° ENE 17:56:18 35° ENE 18:00:20 10° N
STARLINK-1014 3.5 17:53:17 10° SW 17:56:33 45° SE 17:56:36 45° SE
STARLINK-1007 3.1 17:53:41 10° SW 17:56:36 51° SSE 17:56:36 51° SSE
STARLINK-65 3.4 17:53:38 10° SW 17:57:38 74° SSE 17:58:45 46° E
STARLINK-53 3.4 17:55:23 10° WSW 17:59:23 77° SSE 18:00:27 47° ENE
ARGOS 3.2 17:54:50 14° SE 17:59:25 57° ENE 18:04:45 10° N
STARLINK-61 3.5 17:55:45 10° WSW 17:59:40 76° NNW 18:00:50 43° NE
Orbus 7S? 4.1 17:55:25 10° WSW 18:03:15 70° NNW 18:05:06 31° NE
Cosmos 2297 Rocket 4.0 18:00:06 10° N 18:03:24 15° NNE 18:03:57 15° NE
Resurs 01 Rocket 3.2 18:05:26 20° NNE 18:05:26 20° NNE 18:07:29 10° N
Cosmos 2242 Rocket 3.5 18:00:01 10° N 18:04:33 75° E 18:08:33 13° SSE
STARLINK-48 4.0 18:02:08 10° W 18:05:56 50° N 18:06:53 39° NE
STARLINK-1010 3.3 18:03:14 10° SW 18:05:52 52° SSW 18:05:52 52° SSW
IRS-1A Rocket 4.3 18:03:02 10° SSE 18:08:35 82° WSW 18:14:07 10° NNW
STARLINK-60 3.5 18:06:01 10° WNW 18:09:15 53° SSW 18:09:30 51° SSW
NOSS 3-1 (C) 3.3 18:03:48 10° SW 18:09:23 85° NW 18:14:50 15° NE
USA 267 4.0 18:10:35 29° SE 18:10:46 29° SE 18:16:18 10° S
STARLINK-1008 3.6 18:11:15 10° SW 18:13:42 49° SW 18:13:42 49° SW
STARLINK-58 3.2 18:11:39 10° WSW 18:15:12 78° NNW 18:15:14 78° NNW
STARLINK-1016 3.7 18:12:18 10° SW 18:14:41 47° SW 18:14:41 47° SW
STARLINK-1025 3.7 18:13:25 10° WSW 18:15:49 47° SW 18:15:49 47° SW
STARLINK-62 3.2 18:13:21 10° WSW 18:16:52 75° NNW 18:16:52 75° NNW
Cosmos 1898 Rocket 3.8 18:12:38 10° NNW 18:17:37 44° ENE 18:17:47 44° ENE
STARLINK-1017 3.8 18:14:33 10° WSW 18:16:52 45° SW 18:16:52 45° SW
Cosmos 1891 Rocket 4.5 18:12:06 10° S 18:18:04 57° E 18:24:14 10° NNE
COSMOS 2487 3.9 18:14:58 10° NNW 18:16:45 26° N 18:16:45 26° N
STARLINK-34 3.3 18:14:56 10° WSW 18:18:24 73° NW 18:18:24 73° NW
Cosmos 1470 Rocket 3.7 18:14:53 10° SSW 18:19:13 72° WNW 18:23:37 10° N
STARLINK-1048 4.0 18:17:55 10° WSW 18:20:08 42° SW 18:20:08 42° SW
Cosmos 2227 Rocket 3.9 18:17:48 10° N 18:21:19 17° NE 18:21:19 17° NE
STARLINK-1029 4.3 18:18:23 10° SW 18:20:19 33° SW 18:20:19 33° SW
STARLINK-1028 4.0 18:18:57 10° WSW 18:21:10 41° SW 18:21:10 41° SW
STARLINK-1049 4.0 18:19:03 10° WSW 18:21:14 41° SW 18:21:14 41° SW
STARLINK-1021 4.1 18:20:09 10° WSW 18:22:20 40° SW 18:22:20 40° SW
STARLINK-1051 4.1 18:20:13 10° WSW 18:22:23 40° SW 18:22:23 40° SW
STARLINK-1019 4.1 18:21:21 10° WSW 18:23:30 39° WSW 18:23:30 39° WSW
STARLINK-1012 4.2 18:22:35 10° WSW 18:24:42 38° WSW 18:24:42 38° WSW
Cosmos 44 3.4 18:21:51 10° NW 18:26:11 61° SW 18:27:30 41° S
Meteor 1-25 Rocket 4.1 18:20:45 10° S 18:26:26 70° E 18:32:04 10° NNE
STARLINK-1026 4.3 18:25:01 10° WSW 18:27:03 36° WSW 18:27:03 36° WSW
STARLINK-1013 4.4 18:26:18 10° WSW 18:28:16 35° WSW 18:28:16 35° WSW
STARLINK-24 3.6 18:26:29 10° WSW 18:30:19 74° NW 18:30:19 74° NW
STARLINK-1009 4.5 18:27:31 10° WSW 18:29:28 34° WSW 18:29:28 34° WSW
Meteor 2-4 Rocket 4.3 18:25:52 10° N 18:30:43 40° NE 18:30:43 40° NE
Cosmos 1943 Rocket 2.7 18:26:42 10° SW 18:32:12 58° WNW 18:37:43 10° NNE
SJ-6B 3.1 18:34:18 60° NW 18:34:18 60° NW 18:37:32 10° NNW
STARLINK-81 3.9 18:34:51 10° WSW 18:38:19 62° WNW 18:38:19 62° WNW
Cosmos 2219 4.4 18:35:13 10° NNW 18:39:19 27° NNE 18:39:19 27° NNE
Cosmos 1703 Rocket 3.6 18:36:00 10° NNW 18:40:28 76° W 18:40:42 73° SW
STARLINK-54 4.0 18:36:43 10° WSW 18:40:09 58° WNW 18:40:09 58° WNW
ADEOS Rocket 4.3 18:33:24 10° N 18:40:49 54° WNW 18:48:18 10° SW
NOSS 2-3 (E) 3.7 18:37:14 10° SW 18:41:17 78° SSW 18:41:17 78° SSW
STARLINK-77 4.1 18:38:10 10° WSW 18:41:30 56° W 18:41:30 56° W
Cosmos 1464 Rocket 3.9 18:36:16 10° S 18:42:37 83° E 18:49:02 10° N
STARLINK-25 4.2 18:39:50 10° WSW 18:43:06 54° W 18:43:06 54° W
BREEZE-M DEB (TANK) 4.4 18:40:51 10° W 18:44:02 44° SSW 18:45:03 39° S
Cosmos 1340 4.1 18:41:24 10° SW 18:44:55 37° WNW 18:48:29 10° N
STARLINK-71 4.3 18:41:42 10° WSW 18:44:56 51° WNW 18:44:56 51° WNW
USA 234 3.3 18:45:39 52° ENE 18:47:02 63° NNE 18:53:28 10° NW
STARLINK-79 4.4 18:43:08 10° WSW 18:46:16 50° W 18:46:16 50° W
Nadezhda 4 Rocket 3.9 18:41:06 10° N 18:47:23 74° ENE 18:48:25 61° SE
H-2A R/B 2.8 18:42:58 10° S 18:48:10 53° W 18:53:31 10° NNW
STARLINK-78 4.5 18:44:49 10° WSW 18:47:52 47° W 18:47:52 47° W
Timation 2 Rocket 4.1 18:42:47 10° NNW 18:49:39 70° ENE 18:50:37 62° ESE
Okean 1-7 3.7 18:50:40 10° NNW 18:54:06 51° NW 18:54:06 51° NW
Lacrosse 4 Rocket 4.1 18:52:53 10° WNW 18:55:40 17° NW 18:58:21 11° N
NOSS 2-3 (D) 4.2 18:52:05 10° SW 18:55:25 53° WSW 18:55:25 53° WSW
USA 229 DEB 4.3 18:52:08 10° WSW 18:58:36 53° NW 19:03:05 22° NNE
USA 229 4.3 18:52:15 10° WSW 18:58:42 53° NW 19:03:07 22° NNE
CZ-2C R/B 3.9 18:54:04 14° S 18:58:59 54° W 19:04:39 10° NNW
BREEZE-M DEB (TANK) 3.7 18:37:17 10° W 19:00:23 86° N 19:01:29 65° E
Cosmos 2034 Rocket 3.8 19:00:12 79° SE 19:00:28 82° E 19:06:39 10° N
SJ 16-02 2.6 18:56:06 10° NNW 18:58:44 36° NNW 18:58:44 36° NNW
Cosmos 1346 Rocket 4.5 18:59:20 10° SW 19:02:57 32° WNW 19:06:34 10° N
NOSS 3-1 (A) 3.7 18:59:52 10° WSW 19:05:29 62° NW 19:07:46 39° NNE
Cosmos 2369 Rocket 3.3 19:01:19 10° SW 19:06:42 43° NW 19:11:55 11° NNE
Cosmos 1656 Rocket 3.9 19:05:56 10° SW 19:10:50 66° WSW 19:10:50 66° WSW
Cosmos 1937 Rocket 4.3 19:12:41 10° NNW 19:16:26 47° NNW 19:16:26 47° NNW
CENTAUR R/B 3.7 19:19:17 10° NW 19:26:23 40° NNE 19:26:39 40° NNE
Lacrosse 5 rocket 3.6 19:22:58 10° NW 19:25:18 24° NNW 19:25:18 24° NNW
Cosmos 1092 Rocket 4.3 19:21:19 10° N 19:26:27 61° N 19:26:27 61° N
ATLAS 3B R/B 3.9 19:28:07 10° NW 19:33:27 29° NNE 19:33:27 29° NNE
Resurs 01 Rocket 4.0 19:42:59 20° NW 19:42:59 20° NW 19:44:28 10° NNW
Cosmos 2297 Rocket 3.8 19:43:11 10° NNW 19:45:46 27° N 19:45:46 27° N
USA 238 DEB 4.3 19:42:45 10° NW 19:48:21 53° N 19:48:21 53° N
USA 238 4.3 19:42:51 10° NW 19:48:25 53° N 19:48:25 53° N
Cosmos 2227 Rocket 4.1 20:01:01 10° NNW 20:03:09 24° NNW 20:03:09 24° NNW
CENTAUR R/B 4.4 21:10:01 10° NW 21:13:50 33° NW 21:13:50 33° NW
